Pasco, WA

9:11 AM PDT on September 25, 2016 (GMT -0700)
Tri-Cities

Weather History for KPSC - June, 2013

Change the Weather History Date:

Sunday, June 23, 2013

  Actual Average Record
Temperature  
Mean Temperature 65 °F 69 °F  
Max Temperature 79 °F 85 °F 110 °F (1992)
Min Temperature 51 °F 53 °F 41 °F (2009)
Degree Days  
Heating Degree Days 0 1  
Month to date heating degree days 19 31  
Since 1 June heating degree days 19 31  
Since 1 July heating degree days 4726 5021  
Cooling Degree Days 0 4  
Month to date cooling degree days 68 71  
Year to date cooling degree days 114 104  
Since 1 June cooling degree days 68 71  
Growing Degree Days 14 (Base 50)    
Moisture  
Dew Point 53 °F    
Average Humidity 66    
Maximum Humidity 93    
Minimum Humidity 39    
Precipitation  
Precipitation 0.09 in 0.02 in 0.13 in (1969)
Month to date precipitation 0.35 0.60  
Year to date precipitation 2.23 4.85  
Snow  
Snow 0.00 in - - ()
Snow Depth 0.00 in    
Sea Level Pressure  
Sea Level Pressure 29.73 in    
Wind  
Wind Speed 6 mph (NW)    
Max Wind Speed 16 mph    
Max Gust Speed 20 mph    
Visibility 10 miles    
Events Rain    
T = Trace of Precipitation, MM = Missing Value Source: NWS Daily Summary

Daily Weather History Graph

Daily Weather History Graph

Search for Another Location

Airport or City:

Trip Planner

Search our weather history database for the weather conditions in past years. The results will help you decide how hot, cold, wet, or windy it might be!

Date:

Astronomy

Jun. 23, 2013 Rise Set
Actual Time 5:05 AM PDT 8:52 PM PDT
Civil Twilight 4:26 AM PDT 9:31 PM PDT
Nautical Twilight 3:33 AM PDT 10:23 PM PDT
Astronomical Twilight 2:18 AM PDT 11:38 PM PDT
Moon 9:03 PM PDT (6/23) 5:32 AM PDT (6/23)
Length of Visible Light 17h 05m
Length of Day
15h 47m
Full, 100% of the Moon is Illuminated
Jun 23
Full
Jun 29
Last Quarter
Jul 8
New
Jul 15
First Quarter
Jul 22
Full

Hourly Weather History & Observations

Time (PDT) Temp. Dew Point Humidity Pressure Visibility Wind Dir Wind Speed Gust Speed Precip Events Conditions
12:53 AM 55.9 °F 51.1 °F 84% 29.86 in 10.0 mi North 4.6 mph - N/A   Clear
1:53 AM 55.0 °F 51.1 °F 86% 29.84 in 10.0 mi North 4.6 mph - N/A   Clear
2:53 AM 53.1 °F 50.0 °F 89% 29.83 in 10.0 mi NNW 4.6 mph - N/A   Clear
3:53 AM 53.1 °F 50.0 °F 89% 29.83 in 10.0 mi North 4.6 mph - N/A   Clear
4:53 AM 51.1 °F 48.9 °F 92% 29.82 in 10.0 mi North 3.5 mph - N/A   Clear
5:53 AM 53.1 °F 50.0 °F 89% 29.82 in 10.0 mi NNW 3.5 mph - N/A   Clear
6:53 AM 57.9 °F 51.1 °F 78% 29.82 in 10.0 mi North 4.6 mph - N/A   Partly Cloudy
7:53 AM 61.0 °F 51.1 °F 70% 29.81 in 10.0 mi North 5.8 mph - N/A   Scattered Clouds
8:53 AM 63.0 °F 53.1 °F 70% 29.80 in 10.0 mi Calm Calm - N/A   Overcast
9:53 AM 66.9 °F 52.0 °F 59% 29.78 in 10.0 mi NNW 4.6 mph - N/A   Overcast
10:53 AM 71.1 °F 52.0 °F 51% 29.77 in 10.0 mi NW 8.1 mph - N/A   Scattered Clouds
11:53 AM 73.0 °F 51.1 °F 46% 29.75 in 10.0 mi NW 5.8 mph - N/A   Mostly Cloudy
12:53 PM 73.9 °F 54.0 °F 50% 29.73 in 6.0 mi NNW 8.1 mph - 0.00 in Rain Light Rain
1:53 PM 77.0 °F 54.0 °F 45% 29.70 in 10.0 mi NNW 11.5 mph - 0.00 in   Overcast
2:53 PM 78.1 °F 52.0 °F 40% 29.68 in 10.0 mi Variable 6.9 mph - N/A   Overcast
3:53 PM 77.0 °F 51.1 °F 40% 29.67 in 10.0 mi NW 4.6 mph - 0.00 in Rain Light Rain
4:53 PM 78.1 °F 51.1 °F 39% 29.64 in 10.0 mi NW 10.4 mph - 0.00 in   Mostly Cloudy
5:53 PM 77.0 °F 48.9 °F 37% 29.62 in 10.0 mi NW 8.1 mph - 0.00 in Rain Light Rain
6:53 PM 77.0 °F 48.9 °F 37% 29.61 in 10.0 mi WNW 10.4 mph - 0.00 in   Mostly Cloudy
7:53 PM 73.0 °F 51.1 °F 46% 29.62 in 10.0 mi West 10.4 mph - N/A   Overcast
8:53 PM 66.0 °F 59.0 °F 78% 29.64 in 10.0 mi West 11.5 mph - 0.01 in Rain Light Rain
9:53 PM 64.0 °F 59.0 °F 84% 29.65 in 10.0 mi WSW 10.4 mph - 0.01 in Rain Light Rain
10:53 PM 63.0 °F 60.1 °F 90% 29.65 in 10.0 mi WSW 4.6 mph - 0.04 in Rain Light Rain
11:53 PM 63.0 °F 60.1 °F 90% 29.65 in 10.0 mi Calm Calm - 0.01 in Rain Light Rain